Location: Biltmore Gardens
(41.6070°N, 83.4666°W)
Time: 04:02:45
(UTC+00:00)

A-11 Canister half - Pass Details

Date: 18 April 2021
Orbit: 1526 x 1683 km, 47.3° (Epoch: 11 May)

Event Time Altitude Azimuth Distance (km) Brightness Sun altitude
Rises 04:35:22 0° 297° (WNW) 4,936 12.2 -35.8°
Reaches altitude 10° 04:38:49 10° 290° (WNW) 3,937 11.5 -36.0°
Enters shadow 04:46:10 37° 247° (WSW) 2,391 9.8 -36.4°
